Погода в Мюнстере

Германия     51°57′49″N   7°37′52″E
темп.,
°C
ветер,
м/с
пор.,
м/с
влажн.,
%
обл.,
%
осадки,
мм/ч
давл.,
гПа
погр.,
м
16 апреля, пт
пт1623:00+4ссв49725 0.0 1030275
02:00+2ссв367969 0.0 1029129
05:00+2ссв256990 0.0 1029108
08:00+3с366576 0.0 1029185
11:00+8ссв465095 0.0 1028990
14:00+11ссв464479 0.0 10271933
17:00+12ссв554495 0.0 10251863
20:00+8св485979 0.0 1026413
17 апреля, сб
сб1723:00+6св376179 0.0 1027264
02:00+3ссв34729 0.0 102791
05:00+2с23825 0.0 102646
08:00+3с24825 0.0 1026169
11:00+8ссв3447100 0.0 1026845
14:00+12с454525 0.0 10241559
17:00+11св455778 0.0 10231278
20:00+10всв366899 0.0 1023399
18 апреля, вс
вс1823:00+8св3569100 0.0 1024220
02:00+7ссв2474100 0.0 1023152
05:00+7ссв2279100 0.0 102381
08:00+7с2481100 0.0 1023225
11:00+8с3380100 0.0 1022479
14:00+8ссв248499 0.2 1022562
17:00+10ссв2479100 0.1 1021530
20:00+9в3581100 0.3 1022193
19 апреля, пн
пн1923:00+8ссв1185100 0.1 102212
02:00+8с2387100 0.1 102173
05:00+8ссв3692100 0.0 1020229
08:00+8ссв359285 0.1 1020251
11:00+10св4581100 0.0 1020640
14:00+11всв247987 0.1 1019447
17:00+14всв446569 1.0 10181210
20:00+11св357880 1.6 1017114
20 апреля, вт
вт2023:00+10всв348639 0.0 101889
02:00+7в229311 0.0 101724
05:00+6всв12955 0.0 101614
08:00+8вюв229145 0.0 1016112
11:00+13вюв127235 0.2 1015548
14:00+15юв435622 0.9 10141376
17:00+16юв225116 0.4 10121477
20:00+12юв227275 1.4 101218